User: anonymous   Login
Location: Hamilton
(37.7830°S, 175.2830°E)
Time: 15:06:48
(UTC+13:00)
Language:

Cosmos 1709 Rocket - Orbit

View from above orbital plane
View from above orbital plane
View from above satellite
View from above satellite

Ground track
Ground track

The orbit data is extracted from the following two-line orbital elements,

1 16369U 85116B   19293.41637355 -.00000040  00000-0 -55643-4 0  9997
2 16369  82.9367  72.1564 0035140 285.5853  94.7155 13.76842125699662
Epoch (UTC): 20 October 2019 09:59:34
Eccentricity: 0.0035140
inclination: 82.9367°
perigee height: 949 km
apogee height: 1001 km
right ascension of ascending node: 72.1564°
argument of perigee: 285.5853°
revolutions per day: 13.76842125
mean anomaly at epoch: 94.7155°
orbit number at epoch: 69966

The dashed part of the orbit path shows where the satellite is in the earth's shadow,  

DLR